Latest Coastal Weather Observations for Truscott

IDW60701

Issued at 5:12 pm WST Friday 19 December 2014 (issued every 10 minutes, with the page automatically refreshed every 10 minutes)

About coastal observations | Map of coastal stations | Coastal observations for WA | Marine services | Other Formats
Station Details ID: 001020 Name: TRUSCOTT Lat: -14.09 Lon: 126.39 Height: 51.0 m
Data from the previous 72 hours. | See also: Recent months at Truscott
Date/Time
WST
Temp

°C
Wind Pressure Rain
since 9am
mm
Weather Cloud Vis
km
Sea
Height
m
Swell
Dir
 
Speed
knots
Gust
knots
hPa Trend Height
m
Period
s
Dir
19/05:00pm 30.0 NW 4 4 1007.0 - 0.0 - Partly cloudy 10 - - - -
19/04:30pm 30.0 WNW 5 7 1007.0 - 0.0 - Partly cloudy 10 - - - -
19/04:00pm 30.0 N 5 7 1006.0 - 0.0 - - 10 - - - -
19/03:30pm 30.0 N 6 6 1006.0 - 0.0 - - 10 - - - -
19/03:00pm 30.4 N 8 9 1006.2 - 0.0 - - 10 - - - -
19/02:30pm 31.0 N 9 14 1006.0 - 0.0 - - 10 - - - -
19/02:00pm 31.0 N 10 11 1007.0 - 0.0 - Partly cloudy 10 - - - -
19/01:30pm 32.0 NNW 10 13 1007.0 - 0.0 - Partly cloudy 10 - - - -
19/01:00pm 32.0 N 11 10 1008.0 - 0.0 - - 10 - - - -
19/12:30pm 33.0 N 11 15 1008.0 - 0.0 - - 10 - - - -
19/12:00pm 32.9 N 10 13 1008.5 - 0.0 - - 10 - - - -
19/11:30am 34.0 N 9 13 1009.0 - 0.0 - - 10 - - - -
19/11:00am 34.0 E 7 5 1009.0 - 0.0 - - 10 - - - -
19/10:30am 34.0 ENE 5 4 1009.0 - 0.0 - - 10 - - - -
19/10:00am 33.0 ENE 6 7 1010.0 - 0.0 - - 10 - - - -
19/09:30am 32.0 E 6 9 1010.0 - 0.0 - - 10 - - - -
19/09:00am 32.4 ESE 5 5 1009.8 - 0.0 - - 10 - - - -
19/08:30am 31.0 ESE 5 6 1010.0 - 0.0 - - 10 - - - -
19/08:00am 30.0 E 4 7 1010.0 - 0.0 - - 10 - - - -
19/07:30am 30.0 ENE 5 - 1010.0 - 0.0 - - 10 - - - -
19/07:00am 30.0 E 5 6 1009.0 - 0.0 - - 10 - - - -
19/06:30am 28.0 E 5 - 1009.0 - 0.0 - - 10 - - - -
19/06:00am 27.2 CALM 0 - 1008.4 - 0.0 - - 10 - - - -
19/05:30am 26.0 SW 1 - 1008.0 - 0.0 - - 10 - - - -
19/05:00am 26.0 CALM 0 - 1008.0 - 0.0 - - 10 - - - -
19/04:30am 27.0 S 2 - 1007.0 - 0.0 - - 10 - - - -
19/04:00am 27.0 SSE 4 - 1007.0 - 0.0 - - 10 - - - -
19/03:30am 28.0 SSE 5 - 1007.0 - 0.0 - - 10 - - - -
19/03:00am 27.8 SSE 6 - 1006.8 - 0.0 - - 10 - - - -
19/02:30am 27.0 SSE 5 - 1007.0 - 0.0 - - 10 - - - -
19/02:00am 27.0 SW 4 - 1008.0 - 0.0 - - 10 - - - -
19/01:30am 27.0 SW 3 - 1008.0 - 0.0 - - 10 - - - -
19/01:00am 28.0 SSW 4 5 1008.0 - 0.0 - - 10 - - - -
19/12:42am 28.0 S 5 - 1008.0 - 0.0 - - 10 - - - -
19/12:30am 28.0 S 5 - 1008.0 - 0.0 - - 5 - - - -
19/12:24am 28.0 S 4 - 1008.0 - 0.0 - - 5 - - - -
19/12:00am 28.4 SE 5 5 1008.3 - 0.0 - - 10 - - - -
 
Date/Time
WST
Temp

°C
Wind Pressure Rain
since 9am
mm
Weather Cloud Vis
km
Sea
Height
m
Swell
Dir
 
Speed
knots
Gust
knots
hPa Trend Height
m
Period
s
Dir
18/11:30pm 28.0 SSE 8 - 1009.0 - 0.0 - - 10 - - - -
18/11:00pm 27.0 SE 9 - 1010.0 - 0.0 - - 10 - - - -
18/10:30pm 28.0 SSE 14 - 1011.0 - 0.0 - Partly cloudy 10 - - - -
18/10:10pm 29.0 SSE 15 26 1011.0 - 0.0 - Partly cloudy 10 - - - -
18/10:00pm 31.0 SSW 11 - 1010.0 - 0.0 - Partly cloudy 10 - - - -
18/09:30pm 31.0 WSW 8 - 1010.0 - 0.0 - Partly cloudy 10 - - - -
18/09:00pm 30.3 W 8 - 1009.2 - 0.0 - - 10 - - - -
18/08:30pm 30.0 W 6 - 1009.0 - 0.0 - Partly cloudy 10 - - - -
18/08:00pm 30.0 W 8 - 1009.0 - 0.0 - Partly cloudy 10 - - - -
18/07:30pm 30.0 WNW 7 - 1008.0 - 0.0 - - 10 - - - -
18/07:00pm 30.0 NW 6 - 1007.0 - 0.0 - - 10 - - - -
18/06:30pm 31.0 WNW 7 - 1007.0 - 0.0 - - 10 - - - -
18/06:00pm 31.2 WNW 8 - 1006.5 - 0.0 - - 10 - - - -
18/05:30pm 32.0 NW 7 - 1006.0 - 0.0 - - 10 - - - -
18/05:00pm 32.0 NNW 9 - 1005.0 - 0.0 - - 10 - - - -
18/04:30pm 33.0 NW 8 - 1005.0 - 0.0 - - 10 - - - -
18/04:00pm 34.0 NW 8 - 1005.0 - 0.0 - - 10 - - - -
18/03:30pm 34.0 NW 8 - 1005.0 - 0.0 - - 10 - - - -
18/03:00pm 33.9 N 9 - 1004.8 - 0.0 - - 10 - - - -
18/02:30pm 34.0 NNW 8 - 1006.0 - 0.0 - - 10 - - - -
18/02:00pm 35.0 WNW 9 - 1006.0 - 0.0 - - 10 - - - -
18/01:30pm 35.0 W 9 - 1006.0 - 0.0 - - 10 - - - -
18/01:00pm 35.0 WNW 8 - 1007.0 - 0.0 - - 10 - - - -
18/12:30pm 35.0 W 9 - 1007.0 - 0.0 - - 10 - - - -
18/12:00pm 35.0 W 9 - 1007.5 - 0.0 - - 10 - - - -
18/11:30am 34.0 W 8 - 1008.0 - 0.0 - - 10 - - - -
18/11:00am 34.0 NW 9 - 1008.0 - 0.0 - - 10 - - - -
18/10:30am 34.0 WSW 6 - 1009.0 - 0.0 - Partly cloudy 10 - - - -
18/10:00am 33.0 WNW 7 - 1009.0 - 0.0 - - 10 - - - -
18/09:30am 33.0 WNW 7 - 1009.0 - 0.0 - Partly cloudy 10 - - - -
18/09:00am 31.8 NW 8 - 1009.2 - 0.0 - Cloudy 10 - - - -
18/08:30am 31.0 W 8 - 1009.0 - 0.0 - Partly cloudy 10 - - - -
18/08:00am 33.0 SW 7 - 1009.0 - 0.0 - Partly cloudy 10 - - - -
18/07:30am 31.0 WSW 6 - 1009.0 - 0.0 - - 10 - - - -
18/07:00am 30.0 WNW 3 - 1009.0 - 0.0 - - 10 - - - -
18/06:30am 29.0 SSW 3 - 1008.0 - 0.0 - - 10 - - - -
18/06:00am 27.1 CALM 0 - 1007.7 - 0.0 - - 10 - - - -
18/05:30am 26.0 S 4 - 1008.0 - 0.0 - - 10 - - - -
18/05:00am 26.0 CALM 0 - 1007.0 - 0.0 - - 10 - - - -
18/04:30am 25.0 S 3 - 1007.0 - 0.0 - - 10 - - - -
18/04:00am 26.0 S 2 - 1006.0 - 0.0 - - 10 - - - -
18/03:30am 26.0 CALM 0 - 1006.0 - 0.0 - - 10 - - - -
18/03:00am 25.8 CALM 0 - 1005.9 - 0.0 - - 10 - - - -
18/02:30am 26.0 CALM 0 - 1006.0 - 0.0 - - 10 - - - -
18/02:00am 26.0 CALM 0 - 1006.0 - 0.0 - - 10 - - - -
18/01:30am 26.0 CALM 0 - 1006.0 - 0.0 - - 10 - - - -
18/01:00am 26.0 CALM 0 - 1006.0 - 0.0 - - 10 - - - -
18/12:30am 27.0 SSW 2 - 1006.0 - 0.0 - - 10 - - - -
18/12:00am 26.8 SSW 2 - 1005.7 - 0.0 - - 10 - - - -
 
Date/Time
WST
Temp

°C
Wind Pressure Rain
since 9am
mm
Weather Cloud Vis
km
Sea
Height
m
Swell
Dir
 
Speed
knots
Gust
knots
hPa Trend Height
m
Period
s
Dir
17/11:30pm 26.0 S 5 - 1007.0 - 0.0 - Partly cloudy 10 - - - -
17/11:00pm 27.0 CALM 0 - 1007.0 - 0.0 - - 10 - - - -
17/10:30pm 27.0 ESE 3 - 1007.0 - 0.0 - - 10 - - - -
17/10:00pm 27.0 CALM 0 - 1007.0 - 0.0 - - 10 - - - -
17/09:30pm 27.0 NE 2 - 1007.0 - 0.0 - - 10 - - - -
17/09:00pm 26.6 E 3 - 1007.2 - 0.0 - - 10 - - - -
17/08:30pm 26.0 NE 4 - 1007.0 - 0.0 - - 10 - - - -
17/08:00pm 27.0 E 1 - 1007.0 - 0.0 - - 10 - - - -
17/07:30pm 27.0 SE 3 - 1006.0 - 0.0 - - 10 - - - -
17/07:00pm 27.0 SSW 5 - 1006.0 - 0.0 - - 10 - - - -
17/06:30pm 27.0 SSW 6 - 1006.0 - 0.0 - - 10 - - - -
17/06:00pm 27.3 S 3 - 1005.7 - 0.0 - - 10 - - - -
17/05:30pm 28.0 S 5 - 1006.0 - 0.0 - - 10 - - - -
17/05:00pm 29.0 SSW 8 - 1006.0 - 0.0 - - 10 - - - -
17/04:30pm 30.0 S 9 - 1005.0 - 0.0 - Partly cloudy 10 - - - -
17/04:00pm 32.0 W 7 - 1005.0 - 0.0 - Partly cloudy 10 - - - -
17/03:30pm 34.0 WNW 9 - 1005.0 - 0.0 - Partly cloudy 10 - - - -
17/03:00pm 34.2 NW 8 - 1003.5 - 0.0 - - 10 - - - -
17/02:30pm 33.0 NW 9 - 1004.0 - 0.0 - - 10 - - - -
17/02:00pm 34.0 NW 9 - 1004.0 - 0.0 - Partly cloudy 10 - - - -
17/01:30pm 33.0 NNW 10 - 1004.0 - 0.0 - Partly cloudy 10 - - - -
17/01:00pm 33.0 NNW 9 - 1005.0 - 0.0 - - 10 - - - -
17/12:30pm 33.0 NNW 7 - 1005.0 - 0.0 - - 10 - - - -
17/12:00pm 33.6 WNW 7 - 1005.6 - 0.0 - - 10 - - - -
17/11:30am 33.0 WNW 7 - 1006.0 - 0.0 - - 10 - - - -
17/11:00am 33.0 WNW 6 - 1006.0 - 0.0 - - 10 - - - -
17/10:30am 33.0 WNW 6 - 1007.0 - 0.0 - - 10 - - - -
17/10:00am 33.0 W 8 - 1007.0 - 0.0 - - 10 - - - -
17/09:30am 33.0 WSW 6 - 1007.0 - 0.0 - - 10 - - - -
17/09:00am 32.2 WSW 7 - 1007.2 - 0.0 - - 10 - - - -
17/08:30am 31.0 WSW 6 - 1007.0 - 0.0 - - 10 - - - -
17/08:00am 30.0 SSW 6 - 1007.0 - 0.0 - - 10 - - - -
17/07:30am 30.0 WSW 4 - 1007.0 - 0.0 - - 10 - - - -
17/07:00am 29.0 SSW 4 - 1007.0 - 0.0 - - 10 - - - -
17/06:30am 28.0 SSW 3 - 1006.0 - 0.0 - - 10 - - - -
17/06:00am 27.8 SSW 5 - 1005.8 - 0.0 - - 10 - - - -
17/05:30am 27.0 S 2 - 1006.0 - 0.0 - - 10 - - - -
17/05:00am 26.0 CALM 0 - 1005.0 - 0.0 - - 10 - - - -
17/04:30am 27.0 S 3 - 1005.0 - 0.0 - - 10 - - - -
17/04:00am 27.0 SW 4 - 1005.0 - 0.0 - - 10 - - - -
17/03:30am 27.0 SSW 3 - 1005.0 - 0.0 - - 10 - - - -
17/03:00am 26.9 W 3 - 1004.5 - 0.0 - - 10 - - - -
17/02:30am 28.0 S 5 - 1005.0 - 0.0 - - 10 - - - -
17/02:00am 28.0 SW 4 - 1004.0 - 0.0 - - 10 - - - -
17/01:30am 28.0 SSW 4 - 1004.0 - 0.0 - - 10 - - - -
17/01:00am 28.0 SW 4 - 1004.0 - 0.0 - - 10 - - - -
17/12:30am 28.0 SW 6 - 1005.0 - 0.0 - - 10 - - - -
17/12:00am 28.3 SW 7 - 1005.2 - 0.0 - - 10 - - - -
 
Date/Time
WST
Temp

°C
Wind Pressure Rain
since 9am
mm
Weather Cloud Vis
km
Sea
Height
m
Swell
Dir
 
Speed
knots
Gust
knots
hPa Trend Height
m
Period
s
Dir
16/11:30pm 29.0 SW 7 - 1006.0 - 0.0 - - 10 - - - -
16/11:00pm 29.0 SW 7 - 1006.0 - 0.0 - - 10 - - - -
16/10:30pm 30.0 SW 8 - 1007.0 - 0.0 - - 10 - - - -
16/10:00pm 30.0 W 8 - 1007.0 - 0.0 - - 10 - - - -
16/09:30pm 30.0 W 10 - 1007.0 - 0.0 - - 10 - - - -
16/09:00pm 30.2 W 9 - 1006.8 - 0.0 - Cloudy 10 - - - -
16/08:30pm 30.0 W 9 - 1007.0 - 0.0 - - 10 - - - -
16/08:00pm 31.0 W 9 - 1007.0 - 0.0 - - 10 - - - -
16/07:30pm 30.0 W 7 - 1007.0 - 0.0 - - 10 - - - -
16/07:00pm 31.0 W 10 - 1006.0 - 0.0 - - 10 - - - -
16/06:30pm 31.0 W 10 - 1005.0 - 0.0 - - 10 - - - -
16/06:00pm 31.3 W 9 - 1004.0 - 0.0 - - 10 - - - -
16/05:30pm 32.0 W 10 - 1004.0 - 0.0 - - 10 - - - -

Other Formats:

Comma delimited format used in spreadsheet applications
http://www.bom.gov.au/fwo/IDW60701/IDW60701.95101.axf

JavaScript Object Notation format (JSON) in row-major order
http://www.bom.gov.au/fwo/IDW60701/IDW60701.95101.json